Regional Weather Roundup
Issued by NWS Northern Indiana

Home | Current Version | Previous Version | Graphics & Text | Print | Product List | Glossary On
Versions: 1 2 3 4 5 6 7 8 9 10 11 12 13 14 15 16 17 18 19 20 21 22 23 24 25 26 27 28 29 30 31 32 33 34 35 36 37 38 39 40 41 42 43 44 45 46 47 48 49 50
000
ASUS43 KIWX 231510
RWRIWX

KIWX WEATHER ROUNDUP
NATIONAL WEATHER SERVICE NORTHERN INDIANA
1100 AM EDT SAT JUL 23 2016

NOTE: "FAIR" INDICATES FEW OR NO CLOUDS BELOW 12,000 FEET WITH NO
SIGNIFICANT WEATHER AND/OR OBSTRUCTIONS TO VISIBILITY.

* THESE STATIONS ARE NOT UNDER NWS QUALITY CONTROL. THEY ALSO MAY NOT
  REPORT WEATHER SUCH AS PRECIPITATION OR FOG.

INZ001>027-231600-
NORTHERN INDIANA

CITY           SKY/WX    TMP DP  RH WIND       PRES   REMARKS
GARY*          PTSUNNY   86  84  94 CALM      29.99  HX 108
VALPARAISO     PTSUNNY   85  76  74 NE3       30.01R
MICHIGAN CITY* PTSUNNY   82  81  94 NW5       30.00S HX  95
LAPORTE*       MOSUNNY   85  85  99 CALM      30.01R HX 107
KNOX*          CLOUDY    81  70  69 CALM      30.00S
SOUTH BEND     SUNNY     85  74  69 VRB3      30.01S
ELKHART*       SUNNY     86  75  70 CALM      30.00F HX  95
GOSHEN         SUNNY     87  68  52 CALM      30.00F
MONTICELLO*    MOSUNNY   83  73  71 S5        30.00F
LOGANSPORT*    MOSUNNY   81  73  78 S5        30.02F
ROCHESTER*     MOSUNNY   86  79  79 CALM      30.01S HX  99
WARSAW*        PTSUNNY   84  73  70 SW3       30.00F
ANGOLA*          N/A     82  77  83 S3        30.00F
FORT WAYNE     MOSUNNY   84  73  69 CALM      30.00F
HUNTINGTON*    MOSUNNY  N/A N/A N/A SW3       30.00F
PERU/GRISSOM   MOSUNNY   84  76  77 SW5       30.00F
MARION*        CLOUDY    82  74  77 CALM      30.02F HAZE

$$
INZ028>050-231600-
CENTRAL INDIANA

CITY           SKY/WX    TMP DP  RH WIND       PRES   REMARKS
LAFAYETTE      PTSUNNY   81  75  82 VRB3      30.01S
KOKOMO*        PTSUNNY   82  72  69 CALM      30.01F
MUNCIE*        MOSUNNY   85  73  67 NW5       30.03F
INDIANAPOLIS   PTSUNNY   84  74  71 VRB6      30.03F

$$
MIZ043>046-050>051-056>058-064>065-071>073-077>080-231600-
SOUTHWEST LOWER MICHIGAN

CITY           SKY/WX    TMP DP  RH WIND       PRES   REMARKS
BATTLE CREEK   SUNNY     82  68  62 VRB3      30.02R
BENTON HARBOR  MOSUNNY   85  72  65 NW3       29.99S
COLDWATER*     SUNNY     81  65  58 MISG      30.01S
HOLLAND        SUNNY     88  72  58 CALM      30.00R
GRAND RAPIDS   MOSUNNY   86  70  58 NW6       30.00S
KALAMAZOO      SUNNY     85  68  56 N6        30.01R
STURGIS*       SUNNY     83  68  61 NE3       30.01R
THREE RIVERS*  FAIR      82  71  69 CALM      30.02R

$$
OHZ001>008-015>018-024>025-231600-
NORTHWEST OHIO

CITY           SKY/WX    TMP DP  RH WIND       PRES   REMARKS
WAUSEON*       FAIR      82  72  69 CALM      30.00F
DEFIANCE       SUNNY     83  69  62 SE5       29.99F
FINDLAY        MOSUNNY   85  71  63 SW7       30.00F
TOLEDO EXPRESS SUNNY     83  72  69 SW3       29.99F
TOLEDO METCALF SUNNY     85  72  65 SW3       30.00F
LIMA           MOSUNNY   82  74  76 VRB3      30.01F

$$
AND FOR LAKE MICHIGAN COASTAL AND OPEN LAKE BUOY OBSERVATIONS

STATION/POSITION TEMP    WIND        PRES    VSBY  WAVE
                 AIR SEA DIR/SP/G                  HT/PER
                 (F)     (DEG/KT/KT) (MB)    (MI)  (FT/S)
CALUMET HARBOR    83      60/  4/  5 1014.7F
MICHIGAN CITY     78     210/  6/  7   N/A
BURNS HARBOR      79     270/  4/  5 1015.9F
SAINT JOSEPH      79     220/  5/  6 1016.3S
SOUTH LAKE BUOY   77 76  190/  2/  2 1014.5F         0
4 MI NW BRIDGMAN  75 75  210/  4/  6 1015.3R         0
MICHIGAN CITY     78 75  200/  4/  4   N/A           0

$$
&&




USA.gov is the U.S. government's official web portal to all federal, state and local government web resources and services.